Weather History for Spirit of St Louis, MO

Change the Weather History Date:

Monday, May 27, 2013

  Actual Average Record
Temperature  
Mean Temperature 73 °F -  
Max Temperature 84 °F 75 °F 93 °F (2006)
Min Temperature 64 °F 54 °F 46 °F (1999)
Cooling Degree Days 8    
Growing Degree Days 23 (Base 50)    
Moisture  
Dew Point 63 °F    
Average Humidity 77    
Maximum Humidity 94    
Minimum Humidity 60    
Precipitation  
Precipitation 0.65 in - - ()
Sea Level Pressure  
Sea Level Pressure 29.89 in    
Wind  
Wind Speed 7 mph (SSW)    
Max Wind Speed 22 mph    
Max Gust Speed 29 mph    
Visibility 8 miles    
Events Fog , Rain , Thunderstorm    
Averages and records for this station are not official NWS values.
T = Trace of Precipitation, MM = Missing Value Source: NWS Daily Summary

Daily Weather History Graph

Daily Weather History Graph

Search for Another Location

Airport:

Trip Planner

Search our weather history database for the weather conditions in past years. The results will help you decide how hot, cold, wet, or windy it might be!

Date:

Astronomy

May. 27, 2013 Rise Set
Actual Time 5:42 AM CDT 8:18 PM CDT
Civil Twilight 5:11 AM CDT 8:48 PM CDT
Nautical Twilight 4:32 AM CDT 9:27 PM CDT
Astronomical Twilight 3:49 AM CDT 10:10 PM CDT
Moon 10:58 PM CDT (5/27) 8:19 AM CDT (5/27)
Length of Visible Light 15h 37m
Length of Day
14h 36m
Waning Gibbous, 91% of the Moon is Illuminated
May 27
Waning Gibbous
May 31
Last Quarter
Jun 8
New
Jun 16
First Quarter
Jun 23
Full

Hourly Weather History & Observations

Time (CDT) Temp. Heat Index Dew Point Humidity Pressure Visibility Wind Dir Wind Speed Gust Speed Precip Events Conditions
12:11 AM 75.2 °F - 62.6 °F 65% 30.02 in 10.0 mi WNW 4.6 mph - N/A   Mostly Cloudy
12:54 AM 73.0 °F - 64.0 °F 73% 29.99 in 10.0 mi Calm Calm - N/A   Overcast
1:54 AM 73.9 °F - 60.1 °F 62% 29.96 in 10.0 mi ESE 3.5 mph - N/A   Partly Cloudy
2:54 AM 72.0 °F - 60.1 °F 66% 29.96 in 10.0 mi SSW 5.8 mph - N/A   Scattered Clouds
3:54 AM 72.0 °F - 60.1 °F 66% 29.97 in 10.0 mi West 10.4 mph - N/A   Mostly Cloudy
4:54 AM 69.1 °F - 63.0 °F 81% 29.91 in 10.0 mi South 15.0 mph - 0.12 in Rain Light Rain
5:54 AM 68.0 °F - 62.1 °F 81% 29.91 in 10.0 mi WSW 13.8 mph 21.9 mph 0.00 in   Scattered Clouds
6:54 AM 66.9 °F - 63.0 °F 87% 29.94 in 10.0 mi Calm Calm - N/A   Scattered Clouds
7:54 AM 72.0 °F - 64.0 °F 76% 29.93 in 10.0 mi Calm Calm - N/A   Scattered Clouds
8:54 AM 75.0 °F - 64.9 °F 71% 29.94 in 10.0 mi SW 8.1 mph - N/A   Mostly Cloudy
9:54 AM 77.0 °F - 66.0 °F 69% 29.92 in 10.0 mi SW 8.1 mph - N/A   Mostly Cloudy
10:54 AM 79.0 °F - 66.0 °F 64% 29.89 in 10.0 mi SSW 9.2 mph 16.1 mph N/A   Overcast
11:54 AM 81.0 °F 83.3 °F 66.9 °F 62% 29.89 in 10.0 mi SSW 9.2 mph 17.3 mph N/A   Overcast
12:54 PM 82.0 °F 84.9 °F 68.0 °F 62% 29.89 in 10.0 mi SW 8.1 mph - 0.00 in   Mostly Cloudy
1:54 PM 82.0 °F 84.5 °F 66.9 °F 60% 29.88 in 10.0 mi SW 10.4 mph 20.7 mph N/A   Overcast
2:54 PM 75.0 °F - 66.0 °F 73% 29.90 in 10.0 mi NW 21.9 mph 28.8 mph N/A   Overcast
3:06 PM 71.6 °F - 64.4 °F 78% 29.92 in 10.0 mi NNW 20.7 mph 28.8 mph N/A Thunderstorm Thunderstorm
3:42 PM 66.2 °F - 62.6 °F 88% 29.96 in 0.5 mi NW 8.1 mph 24.2 mph 0.32 in Fog , Rain , Thunderstorm Heavy Thunderstorms and Rain
3:51 PM 66.2 °F - 62.6 °F 88% 29.93 in 1.0 mi North 5.8 mph - 0.42 in Rain , Thunderstorm Thunderstorms and Rain
3:54 PM 66.0 °F - 63.0 °F 90% 29.92 in 2.0 mi NNE 4.6 mph - 0.43 in Rain , Thunderstorm Heavy Thunderstorms and Rain
3:56 PM 66.2 °F - 62.6 °F 88% 29.94 in 3.0 mi Calm Calm - 0.01 in Rain , Thunderstorm Heavy Thunderstorms and Rain
3:59 PM 66.2 °F - 62.6 °F 88% 29.94 in 3.0 mi Calm Calm - 0.01 in Rain , Thunderstorm Thunderstorms and Rain
4:39 PM 64.4 °F - 62.6 °F 94% 29.90 in 8.0 mi SSE 3.5 mph - 0.04 in Rain , Thunderstorm Light Thunderstorms and Rain
4:54 PM 66.0 °F - 63.0 °F 90% 29.87 in 9.0 mi SSE 9.2 mph - 0.06 in Rain , Thunderstorm Light Thunderstorms and Rain
5:10 PM 66.2 °F - 62.6 °F 88% 29.82 in 6.0 mi SSE 20.7 mph 27.6 mph 0.03 in Rain , Thunderstorm Rain
5:37 PM 66.2 °F - 62.6 °F 88% 29.71 in 10.0 mi ESE 19.6 mph 26.5 mph 0.04 in   Mostly Cloudy
5:54 PM 68.0 °F - 61.0 °F 78% 29.76 in 10.0 mi South 10.4 mph 21.9 mph 0.04 in   Partly Cloudy
6:54 PM 69.1 °F - 63.0 °F 81% 29.80 in 10.0 mi SSW 6.9 mph - N/A   Mostly Cloudy
7:54 PM 70.0 °F - 63.0 °F 78% 29.81 in 10.0 mi Calm Calm - N/A   Mostly Cloudy
8:54 PM 71.1 °F - 63.0 °F 75% 29.79 in 10.0 mi Variable 4.6 mph - N/A   Mostly Cloudy
9:54 PM 71.1 °F - 63.0 °F 75% 29.83 in 10.0 mi Calm Calm - N/A   Scattered Clouds
10:54 PM 71.1 °F - 63.0 °F 75% 29.84 in 10.0 mi South 3.5 mph - N/A   Clear
11:54 PM 66.0 °F - 63.0 °F 90% 29.86 in 9.0 mi Calm Calm - N/A   Clear